Location: Unspecified
(35.6961°N, 0.0000°E)
Time: 12:17:46
(UTC+00:00)

Vanguard 2 Rocket - Pass Details

Date: 30 May 2019
Orbit: 555 x 3326 km, 32.9° (Epoch: 25 June)

Event Time Altitude Azimuth Distance (km) Brightness Sun altitude
Rises 00:19:01 0° 193° (SSW) 6,396 - -32.4°
Reaches altitude 10° 00:24:25 10° 181° (S) 5,743 - -32.3°
Exits shadow 00:35:14 23° 144° (SE) 5,123 10.3 -31.9°
Maximum altitude 00:37:31 24° 135° (SE) 5,133 10.3 -31.8°
Drops below altitude 10° 00:51:20 10° 92° (E) 6,152 11.2 -31.2°
Sets 00:57:14 0° 80° (E) 6,945 11.7 -30.9°
